Wind_Speed
34 34 34 33 33 32 31 31 30 30 29 28 28 28 29 30 31 32 31 29 27 27 26 25 24 23 22 22 22 21 20 19 18 18 17 17 17 16 16 15 14 13 12
36 36 36 35 34 33 33 33 32 31 30 29 29 28 29 31 32 33 33 31 29 28 27 27 26 25 24 24 23 23 23 22 20 20 19 19 19 18 18 17 16 15 14
37 37 35 35 35 34 35 34 33 33 32 31 30 31 29 29 31 32 33 32 31 30 28 28 28 27 25 25 24 24 23 23 22 22 21 21 21 20 20 20 19 18 17
38 38 36 35 35 36 36 35 34 34 33 32 31 31 30 30 29 31 31 31 32 31 30 29 29 28 27 26 25 25 25 24 24 23 23 23 23 23 22 22 22 21 20
39 38 37 37 37 36 36 36 35 35 34 33 32 31 30 29 29 30 31 31 31 31 31 31 30 29 28 27 25 26 26 25 25 24 25 25 25 25 24 24 24 24 22
40 39 39 39 39 38 38 37 36 36 35 35 33 32 31 30 29 30 31 33 31 32 32 31 31 31 29 28 27 27 26 26 26 25 25 25 26 26 26 26 26 26 25
39 39 39 39 39 38 38 37 37 37 37 35 34 33 32 32 30 30 31 33 32 32 32 33 32 32 32 30 28 28 27 27 27 26 26 26 26 26 26 27 27 27 27
38 38 38 38 39 38 38 38 37 37 37 37 36 34 32 31 30 30 31 32 32 33 33 32 33 33 33 32 30 29 28 28 27 27 27 26 26 26 26 26 27 27 28
37 37 37 37 37 37 37 38 38 37 37 37 36 34 32 31 29 29 30 32 32 33 34 34 34 34 35 34 32 30 29 28 28 27 27 27 26 26 26 27 27 28 28
37 36 36 36 36 36 36 37 37 37 37 37 36 36 34 33 31 30 31 32 33 33 34 34 34 34 34 35 33 32 30 29 28 28 28 27 26 26 25 26 25 26 27
37 36 35 34 34 34 35 35 35 35 35 35 35 36 35 35 33 32 31 32 33 33 35 35 35 35 35 35 35 33 32 31 29 29 28 28 27 26 25 24 24 25 25
38 37 36 35 35 34 34 35 34 34 34 34 34 35 35 35 34 34 33 33 33 33 35 36 37 36 36 37 36 35 33 32 31 30 29 28 27 26 25 24 24 24 23
39 39 38 37 37 36 35 35 35 35 34 34 34 35 35 35 36 35 34 33 34 34 34 36 37 38 37 37 37 37 36 34 32 31 30 29 27 26 25 24 23 23 23
39 39 39 39 39 37 36 36 35 36 35 35 35 36 36 36 37 37 36 35 35 35 35 35 36 38 38 38 38 38 37 36 34 33 31 30 28 26 25 24 23 22 21
40 40 40 40 40 39 38 37 37 37 37 36 36 36 37 37 37 38 38 38 37 36 36 36 37 38 39 40 40 40 39 38 36 35 33 30 28 26 25 23 22 21 20
40 40 40 40 40 40 40 40 39 39 39 39 39 38 39 39 39 39 40 40 40 38 37 38 38 39 41 42 42 42 41 40 38 36 34 31 29 27 25 23 22 20 20
39 40 40 40 40 40 41 41 41 41 41 41 41 41 41 41 41 41 41 41 41 41 40 38 39 40 42 44 44 43 42 41 40 38 36 33 31 28 25 23 21 20 19
40 40 39 40 41 41 42 43 43 43 43 43 43 43 43 43 44 43 43 43 44 44 41 40 40 41 43 45 45 45 44 44 42 40 38 35 32 29 26 24 22 20 19
39 40 40 41 41 41 42 43 44 44 44 44 45 46 46 46 47 47 46 46 46 46 45 43 42 43 44 46 47 47 47 46 45 42 40 37 34 31 28 24 22 21 19
39 40 40 40 41 41 42 43 44 45 45 45 46 47 48 49 49 50 50 50 50 49 48 47 44 44 45 47 48 48 49 48 47 45 42 39 36 33 29 26 23 21 20
40 39 39 39 39 39 40 41 43 44 45 46 47 48 49 50 51 52 53 54 54 53 51 50 48 47 46 48 48 49 50 50 49 47 44 41 38 35 32 28 25 23 21
39 39 38 37 37 38 40 41 43 43 44 45 46 47 48 50 51 53 55 57 58 57 55 53 52 50 48 48 50 50 52 51 50 49 46 44 41 37 34 30 27 24 21
38 37 37 37 38 39 40 40 40 40 40 41 43 44 46 49 51 53 56 58 60 60 59 57 55 52 50 50 51 52 52 52 51 50 49 46 43 40 36 32 29 25 23
37 37 37 37 37 37 37 37 37 37 36 37 38 40 43 46 49 52 55 59 60 61 61 60 58 56 53 51 50 51 53 53 53 53 52 49 46 42 39 35 31 28 24
37 37 37 37 36 35 35 35 35 34 33 33 35 37 40 43 46 50 54 57 60 62 63 63 61 60 57 54 52 53 54 55 55 53 51 49 47 44 41 37 34 30 27
37 37 37 36 35 33 32 32 32 31 29 29 31 34 37 40 44 47 52 56 58 60 63 63 63 61 59 56 54 53 52 53 54 53 51 50 48 46 43 40 36 33 29
Wind_Direction
293 293 293 291 289 286 285 285 285 283 281 279 274 267 259 255 252 249 247 246 244 246 247 246 245 243 242 242 241 239 238 237 234 232 233 231 230 228 225 225 225 222 220
292 293 291 290 288 284 282 281 279 278 279 280 277 274 266 261 256 253 246 243 242 243 244 244 242 241 241 240 240 238 236 235 234 233 233 232 231 229 226 225 224 224 222
291 291 289 287 287 285 282 280 278 277 277 278 277 275 272 267 262 256 247 241 240 240 241 241 240 239 238 238 238 236 233 233 234 234 233 231 230 230 228 226 225 224 225
290 289 288 286 283 283 282 280 279 276 276 276 275 274 271 269 268 259 250 244 239 237 238 238 237 236 236 236 235 233 232 232 233 233 232 232 232 230 229 227 224 224 226
289 287 287 285 283 281 280 279 277 276 276 275 274 273 269 269 267 258 251 245 239 235 235 236 234 232 233 234 233 232 231 231 231 231 231 232 231 230 229 228 225 224 226
287 286 285 284 282 281 279 277 275 274 274 274 272 271 267 268 264 258 252 243 239 235 233 233 230 230 231 232 231 230 229 230 229 228 229 230 229 230 230 228 227 227 227
286 285 284 283 281 279 278 276 274 273 273 272 270 269 266 264 261 257 251 243 239 234 232 231 230 229 228 229 228 227 226 227 227 228 228 228 228 229 228 228 228 228 228
285 284 282 281 279 278 276 275 273 272 271 270 269 267 264 261 260 257 249 241 240 235 232 231 228 228 228 227 225 224 224 224 224 226 226 226 226 226 227 227 228 228 229
286 284 282 280 278 277 275 273 272 270 268 267 266 263 260 258 256 254 248 242 241 237 232 230 229 229 228 224 222 221 221 220 220 222 223 223 224 226 227 227 228 229 230
289 286 284 281 279 277 275 272 271 269 266 265 263 260 259 255 254 251 249 243 239 237 232 228 228 228 227 223 219 218 218 217 218 219 219 220 221 223 224 225 224 226 228
291 289 286 284 281 279 276 273 270 267 264 262 260 258 256 253 250 247 245 242 239 235 231 228 226 227 225 220 218 218 216 216 215 216 217 218 219 220 221 222 223 223 225
293 291 288 286 283 281 277 274 271 267 264 260 258 256 254 251 248 246 243 240 237 235 232 228 225 224 222 220 218 216 215 214 214 214 215 215 216 216 218 219 220 222 225
294 291 289 286 284 281 278 275 271 267 263 259 256 254 251 249 247 245 242 239 235 233 231 228 225 222 221 219 216 215 214 213 212 212 212 212 212 213 215 215 217 220 223
294 291 288 286 284 282 279 275 272 268 264 259 256 253 250 248 245 243 239 237 234 230 229 226 223 221 220 218 216 215 213 211 211 211 210 210 210 210 212 214 216 219 222
294 291 288 286 284 281 278 275 272 268 265 261 257 253 250 247 245 242 237 234 232 230 228 223 221 218 217 216 214 214 211 210 209 209 209 208 208 208 210 212 214 218 222
294 291 289 286 283 281 278 276 272 269 265 262 258 254 250 246 244 241 237 234 230 228 225 221 219 218 216 214 214 213 211 209 208 207 207 207 207 207 209 211 214 218 222
297 293 290 287 284 281 279 276 274 270 266 262 259 255 251 246 243 240 237 233 229 226 224 220 219 218 216 214 213 213 210 209 207 207 206 206 206 208 209 212 215 219 224
298 295 291 288 285 283 280 278 275 271 268 263 259 255 251 246 242 239 236 233 229 225 223 221 218 216 213 212 212 212 210 210 208 207 206 206 207 208 210 212 216 220 225
300 297 294 291 288 285 282 279 276 272 268 264 260 255 251 247 242 239 235 232 229 226 223 221 219 217 214 212 211 211 211 210 208 208 207 207 207 208 211 213 217 220 225
302 299 297 295 291 287 284 281 278 274 270 265 261 256 251 247 243 238 234 231 229 225 223 220 218 216 215 212 211 211 210 209 209 208 208 208 208 209 211 214 216 220 223
305 303 301 297 293 290 287 284 280 276 271 266 262 257 251 246 242 237 233 230 228 224 222 220 218 217 214 214 211 211 210 209 209 209 209 209 209 210 212 213 216 219 223
309 306 304 299 296 294 291 288 283 279 273 268 262 257 251 245 240 236 231 228 226 225 222 220 217 217 215 213 211 210 209 209 209 209 209 209 210 212 213 214 216 219 222
312 309 306 302 299 297 294 290 286 281 275 269 263 256 249 242 237 233 229 227 225 223 222 219 217 216 215 213 211 210 208 208 209 209 209 210 211 213 214 215 217 219 222
314 311 308 305 303 299 296 293 289 284 279 270 262 255 248 241 236 232 228 224 222 221 219 218 217 214 213 212 212 210 207 207 209 209 209 210 211 213 214 215 218 220 223
317 314 311 308 306 303 300 296 293 288 281 273 264 256 248 239 234 230 226 222 221 219 216 215 215 214 213 214 214 211 208 208 208 209 210 211 212 213 214 216 218 220 223
320 317 314 312 309 307 304 301 296 290 282 274 267 257 247 238 232 228 224 220 219 216 215 214 212 212 213 213 214 211 208 208 209 209 210 211 213 214 215 217 218 220 223
Height
5868 5865 5863 5861 5860 5859 5858 5857 5856 5854 5853 5852 5852 5852 5854 5855 5855 5857 5859 5861 5864 5866 5868 5870 5872 5874 5876 5879 5881 5883 5886 5888 5890 5892 5894 5896 5898 5899 5901 5903 5905 5906 5908
5860 5858 5856 5854 5852 5850 5850 5849 5848 5847 5846 5845 5844 5844 5845 5846 5847 5848 5850 5853 5856 5859 5861 5863 5866 5868 5871 5873 5875 5878 5881 5883 5886 5888 5890 5892 5894 5896 5898 5900 5902 5904 5906
5851 5849 5847 5845 5843 5842 5840 5840 5839 5839 5838 5838 5837 5837 5837 5838 5839 5840 5842 5845 5848 5851 5854 5857 5859 5862 5865 5867 5870 5873 5875 5878 5881 5883 5886 5888 5890 5892 5895 5897 5899 5902 5904
5842 5840 5838 5837 5835 5833 5832 5831 5830 5830 5830 5830 5829 5829 5829 5830 5831 5832 5834 5837 5840 5843 5847 5850 5853 5856 5859 5862 5864 5867 5870 5873 5875 5878 5881 5883 5886 5888 5890 5893 5895 5898 5901
5832 5830 5829 5827 5826 5825 5823 5823 5822 5821 5821 5821 5821 5821 5821 5822 5822 5823 5825 5828 5832 5835 5838 5842 5846 5849 5853 5856 5859 5862 5864 5867 5870 5873 5875 5878 5880 5883 5886 5888 5891 5894 5896
5823 5821 5819 5817 5816 5815 5814 5813 5813 5813 5812 5812 5812 5813 5813 5813 5813 5815 5818 5821 5824 5827 5831 5835 5839 5843 5846 5850 5853 5856 5859 5862 5865 5867 5870 5872 5875 5878 5881 5884 5886 5889 5892
5813 5811 5809 5807 5806 5805 5804 5803 5803 5803 5803 5803 5803 5804 5805 5805 5806 5808 5810 5813 5816 5820 5823 5827 5831 5835 5839 5843 5847 5850 5853 5856 5859 5862 5864 5867 5870 5873 5876 5878 5881 5884 5887
5803 5801 5799 5797 5796 5795 5794 5793 5793 5793 5793 5793 5794 5794 5796 5798 5798 5800 5802 5805 5808 5812 5816 5820 5824 5828 5832 5837 5841 5844 5847 5850 5853 5856 5859 5862 5865 5868 5871 5873 5876 5879 5882
5793 5791 5789 5787 5786 5784 5784 5783 5783 5783 5783 5783 5783 5785 5787 5789 5790 5792 5794 5797 5800 5804 5808 5812 5816 5821 5825 5829 5834 5838 5841 5844 5847 5851 5854 5857 5860 5863 5866 5868 5871 5874 5877
5782 5780 5778 5777 5775 5774 5773 5772 5772 5772 5773 5773 5774 5775 5777 5779 5781 5784 5787 5789 5792 5796 5800 5804 5809 5813 5817 5822 5826 5831 5835 5838 5842 5845 5849 5852 5855 5858 5861 5863 5866 5869 5872
5771 5769 5767 5766 5764 5763 5762 5761 5761 5761 5762 5763 5764 5765 5767 5769 5771 5775 5778 5781 5784 5788 5792 5796 5800 5805 5810 5815 5820 5824 5829 5833 5836 5840 5843 5846 5850 5853 5856 5859 5861 5864 5867
5760 5758 5756 5754 5753 5752 5751 5750 5750 5750 5751 5752 5753 5755 5757 5759 5762 5765 5769 5772 5775 5779 5783 5787 5792 5797 5802 5807 5813 5818 5822 5827 5831 5834 5838 5841 5845 5848 5851 5854 5857 5860 5862
5750 5747 5745 5743 5741 5740 5740 5739 5739 5739 5740 5741 5743 5744 5746 5749 5752 5755 5759 5763 5766 5770 5775 5779 5784 5789 5794 5800 5805 5811 5816 5820 5825 5829 5833 5836 5840 5844 5847 5850 5852 5855 5858
5740 5736 5733 5731 5730 5728 5728 5727 5727 5727 5728 5730 5732 5733 5736 5738 5741 5745 5749 5753 5757 5762 5766 5771 5775 5781 5786 5792 5798 5803 5809 5814 5819 5823 5828 5832 5836 5839 5843 5846 5848 5851 5854
5729 5725 5722 5719 5717 5716 5715 5715 5715 5715 5716 5718 5720 5722 5725 5727 5731 5734 5738 5743 5748 5752 5757 5762 5767 5773 5778 5784 5790 5796 5802 5807 5813 5818 5823 5827 5831 5835 5839 5842 5844 5847 5849
5717 5713 5710 5707 5705 5703 5702 5702 5702 5702 5704 5705 5707 5710 5713 5716 5719 5723 5727 5732 5737 5742 5748 5753 5758 5763 5769 5775 5782 5788 5794 5800 5806 5812 5817 5822 5826 5830 5834 5837 5840 5843 5845
5706 5702 5698 5695 5692 5690 5688 5687 5687 5688 5689 5691 5693 5696 5699 5703 5707 5711 5716 5721 5726 5731 5738 5743 5749 5754 5760 5767 5773 5780 5787 5793 5800 5806 5811 5817 5821 5826 5829 5833 5836 5838 5840
5694 5690 5686 5682 5679 5677 5674 5673 5672 5673 5673 5675 5677 5681 5685 5688 5694 5699 5704 5709 5714 5720 5726 5733 5739 5744 5751 5757 5765 5772 5779 5786 5793 5799 5805 5811 5816 5820 5824 5828 5831 5834 5836
5682 5677 5673 5669 5666 5663 5660 5658 5657 5657 5658 5659 5661 5664 5668 5673 5678 5684 5690 5696 5702 5708 5715 5722 5728 5734 5741 5747 5755 5763 5770 5778 5785 5792 5798 5804 5810 5815 5819 5823 5826 5829 5832
5671 5665 5660 5656 5652 5648 5645 5643 5641 5640 5641 5642 5644 5647 5651 5656 5661 5668 5675 5682 5689 5696 5703 5711 5717 5724 5730 5737 5745 5753 5762 5770 5778 5785 5791 5798 5803 5809 5814 5818 5821 5824 5827
5659 5653 5648 5643 5638 5634 5631 5628 5625 5624 5623 5624 5626 5629 5632 5637 5643 5650 5658 5666 5674 5682 5690 5698 5706 5712 5719 5727 5736 5744 5753 5761 5769 5777 5784 5791 5797 5803 5808 5812 5816 5819 5822
5648 5642 5636 5630 5626 5621 5617 5613 5609 5607 5606 5606 5607 5609 5613 5619 5625 5632 5640 5648 5658 5667 5676 5685 5693 5702 5710 5718 5726 5734 5743 5752 5761 5769 5776 5784 5790 5796 5802 5806 5810 5814 5817
5637 5631 5625 5619 5613 5608 5603 5598 5594 5591 5589 5588 5589 5591 5594 5600 5606 5613 5622 5631 5641 5651 5662 5672 5681 5691 5699 5707 5716 5724 5733 5742 5751 5760 5768 5775 5782 5789 5795 5801 5805 5809 5812
5627 5620 5614 5607 5601 5595 5589 5584 5579 5576 5573 5572 5572 5573 5577 5582 5588 5596 5604 5614 5624 5635 5647 5659 5670 5679 5687 5696 5704 5714 5722 5731 5741 5749 5758 5767 5775 5782 5788 5794 5799 5803 5806
5618 5610 5603 5596 5590 5583 5577 5571 5566 5562 5559 5557 5557 5558 5561 5566 5572 5579 5588 5599 5609 5620 5630 5643 5654 5665 5675 5684 5693 5702 5711 5722 5731 5741 5750 5759 5767 5774 5781 5787 5792 5797 5801
5608 5600 5592 5585 5578 5572 5566 5560 5554 5550 5547 5545 5544 5544 5546 5551 5556 5563 5573 5583 5594 5605 5616 5628 5640 5652 5663 5673 5683 5692 5703 5713 5723 5733 5742 5751 5759 5766 5773 5779 5785 5790 5795